Regional Weather Roundup
Issued by NWS Little Rock, AR

Home | Current Version | Previous Version | Text Only | Print | Product List | Glossary Off
Versions: 1 2 3 4 5 6 7 8 9 10 11 12 13 14 15 16 17 18 19 20 21 22 23 24 25 26 27 28 29 30 31 32 33 34 35 36 37 38 39 40 41 42 43 44 45 46 47 48 49 50

000
ASUS44 KLZK 291905
RWRLZK

WEATHER ROUNDUP FOR ARKANSAS
NATIONAL WEATHER SERVICE LITTLE ROCK AR
200 PM CDT FRI MAY 29 2015

NOTE: "FAIR" INDICATES FEW OR NO CLOUDS BELOW 12,000 FEET WITH NO
SIGNIFICANT WEATHER AND/OR OBSTRUCTIONS TO VISIBILITY.

ARZ001-003-010-029-292000-
NORTHWEST ARKANSAS

CITY           SKY/WX    TMP DP  RH WIND       PRES   REMARKS
FAYETTEVILLE   CLOUDY    78  67  68 S14       29.98F
FORT SMITH     CLOUDY    82  70  66 SE8       29.94F HX  86
HARRISON       PTSUNNY   83  67  58 S9        30.00F HX  85
BENTONVILLE    PTSUNNY   81  68  65 SE3       29.99F
ROGERS         PTSUNNY   78  69  73 SE7       29.99F
SILOAM SPGS    CLOUDY    77  64  65 SE6       29.99F
HIGHFILL       PTSUNNY   80  69  69 SE9       29.98F
SPRINGDALE     PTSUNNY   79  68  69 SE7       30.01F
$$

ARZ004-005-016-292000-
NORTH CENTRAL ARKANSAS

CITY           SKY/WX    TMP DP  RH WIND       PRES   REMARKS
BATESVILLE     PTSUNNY   84  70  61 SE5       30.00F HX  88
FLIPPIN          N/A     84  70  61 SE6       29.98F HX  88
MTN HOME       PTSUNNY   82  69  64 S7        29.99F HX  85
$$

ARZ040-041-292000-
WEST CENTRAL ARKANSAS

CITY           SKY/WX    TMP DP  RH WIND       PRES   REMARKS
MENA           CLOUDY    81  72  74 SE3       29.98S
MOUNT IDA      CLOUDY    81  71  71 SE7       29.96F HX  85
$$

ARZ009-017-025-026-028-292000-
NORTHEAST ARKANSAS

CITY           SKY/WX    TMP DP  RH WIND       PRES   REMARKS
CORNING        LGT RAIN  84  72  65 S10       30.02F HX  89
JONESBORO      PTSUNNY   82  71  69 S12       30.02F HX  86
NEWPORT        PTSUNNY   88  71  56 SE8       30.02F HX  93
WALNUT RIDGE   PTSUNNY   77  70  78 W5        30.02F
BLYTHEVILLE    MOSUNNY   86  71  60 S13       30.04F HX  91
NW BLYTHEVILLE PTSUNNY   86  72  62 S9G21     30.03  HX  92
$$

ARZ022-023-033-042-044-292000-
CENTRAL ARKANSAS

CITY           SKY/WX    TMP DP  RH WIND       PRES   REMARKS
LITTLE ROCK    PTSUNNY   87  70  56 SE17      29.98F HX  92
N LITTLE ROCK  PTSUNNY   85  74  69 SE12G21   29.98F HX  92
JACKSONVILLE   MOSUNNY   85  73  66 E15G22    29.98F HX  91
HOT SPRINGS    CLOUDY    82  68  62 S8        29.97F HX  85
RUSSELLVILLE   CLOUDY    84  72  67 VRB6      29.95F HX  89
CLINTON        FAIR      84  72  65 SE6       29.99F HX  89
$$

ARZ036-292000-
EAST ARKANSAS

CITY           SKY/WX    TMP DP  RH WIND       PRES   REMARKS
WEST MEMPHIS   MOSUNNY   85  74  69 S13       30.03F HX  92
$$

ARZ050-053-066-070-073-292000-
SOUTHWEST ARKANSAS

CITY           SKY/WX    TMP DP  RH WIND       PRES   REMARKS
ARKADELPHIA    FAIR      86  75  69 SE9       29.97F HX  95
CAMDEN         PTSUNNY   84  68  58 NE12G22   29.96F HX  87
TEXARKANA      PTSUNNY   84  73  69 SE14G23   29.94F HX  90
EL DORADO      PTSUNNY   84  70  62 SE15G21   29.97F HX  88
DE QUEEN       PTSUNNY   82  73  74 S9G17     29.92F HX  87
$$

ARZ056-057-069-292000-
SOUTHEAST ARKANSAS

CITY           SKY/WX    TMP DP  RH WIND       PRES   REMARKS
PINE BLUFF     MOSUNNY   87  70  56 SE13G21   29.99F HX  92
STUTTGART      PTSUNNY   88  72  58 MISG      30.01F HX  94
MONTICELLO     PTSUNNY   86  72  62 SE10      30.01F HX  92

$$





USA.gov is the U.S. government's official web portal to all federal, state and local government web resources and services.